Home > Weather > Hat Yai > Past weeks

Flag for Thailand Past Weather in Hat Yai, Thailand — Yesterday and Last 2 Weeks

Now
77 °F

Passing clouds.


Feels Like: 78 °F
Forecast: 82 / 95 °F
Wind: No wind

Location: Hat Yai Airport

Current Time: May 24, 2016 at 8:57:44 PM

Latest Report: May 24, 2016 at 8:30 PM


Visibility: N/A

Pressure: 29.80 "Hg

Humidity: 94%

Dew Point: 75 °F

Location of Hat YaiLocation

Past Weather in Hat Yai — Graph

°F

Hat Yai Temperature Yesterday

Maximum temperature yesterday: 97 °F (at 1:00 PM)
Minimum temperature yesterday: 77 °F (at 12:00 AM)
Average temperature yesterday: 85 °F

High & Low Weather Summary for the Past Weeks

 TemperatureHumidityPressure
High99 °F (May 11, 2:00 PM)100% (May 10, 4:00 AM)29.89 "Hg (May 10, 4:00 AM)
Low73 °F (May 24, 1:00 PM)39% (May 11, 2:00 PM)29.65 "Hg (May 11, 4:00 PM)
Average84 °F82%29.78 "Hg
* Reported May 9 7:00 PM — May 24 7:30 PM, Hat Yai, Weather by CustomWeather, © 2016

Note: Actual official high and low records may vary slightly from our data, if they occured in-between our weather recording intervals... More about our weather records

Advertising

Hat Yai Weather History for the Previous 24 Hours

Scroll right to see more
 ConditionsComfort  
Time TempWeatherWind HumidityBarometerVisibility
7:30 PM
Tue, May 24
77 °FPassing clouds.3 mph94%29.77 "HgN/A
7:00 PM77 °FPassing clouds.3 mph94%29.77 "HgN/A
6:30 PM79 °FPassing clouds.3 mph89%29.74 "HgN/A
6:00 PM77 °FPartly sunny.2 mph94%29.74 "HgN/A
5:00 PM77 °FPartly sunny.5 mph94%29.74 "HgN/A
4:00 PM77 °FBroken clouds.6 mph94%29.77 "HgN/A
3:30 PM77 °FLight rain. Broken clouds.2 mph94%29.77 "HgN/A
3:00 PM77 °FLight rain. Broken clouds.7 mph94%29.80 "HgN/A
2:30 PM77 °FLight rain. Broken clouds.5 mph89%29.83 "HgN/A
2:00 PM77 °FLight rain. Broken clouds.6 mph89%29.86 "Hg6 mi
1:30 PM75 °FThunderstorms. Broken clouds.10 mph94%29.83 "Hg6 mi
1:00 PM73 °FStrong thunderstorms. Broken clouds.33 mph100%29.86 "Hg1 mi
12:30 PM91 °FBroken clouds.8 mph67%29.80 "HgN/A
12:00 PM90 °FBroken clouds.7 mph75%29.80 "HgN/A
11:30 AM90 °FBroken clouds.5 mph75%29.83 "HgN/A
11:00 AM90 °FBroken clouds.5 mph71%29.83 "HgN/A
10:30 AM88 °FPartly sunny.6 mph75%29.86 "HgN/A
10:00 AM86 °FPartly sunny.6 mph79%29.86 "HgN/A
9:30 AM84 °FPartly sunny.3 mph84%29.86 "HgN/A
9:00 AM82 °FPartly sunny.2 mph84%29.83 "HgN/A
8:30 AM79 °FPartly sunny.3 mph89%29.83 "HgN/A
8:00 AM77 °FPartly sunny.2 mph94%29.83 "HgN/A
7:30 AM77 °FPartly sunny.3 mph89%29.83 "Hg6 mi
7:00 AM75 °FBroken clouds.5 mph94%29.80 "Hg6 mi
6:30 AM75 °FLight rain. Broken clouds.3 mph94%29.80 "Hg6 mi
6:00 AM77 °FPartly sunny.5 mph89%29.80 "HgN/A
5:30 AM79 °FPassing clouds.2 mph84%29.77 "HgN/A
5:00 AM79 °FPassing clouds.7 mph89%29.77 "HgN/A
4:30 AM79 °FPassing clouds.5 mph100%29.80 "HgN/A
4:00 AM79 °FPassing clouds.2 mph100%29.80 "HgN/A
3:30 AM79 °FPassing clouds.3 mph100%29.77 "HgN/A
3:00 AM79 °FPassing clouds.2 mph94%29.77 "HgN/A
2:30 AM79 °FPassing clouds.2 mph100%29.80 "HgN/A
2:00 AM79 °FPassing clouds.2 mph100%29.80 "HgN/A
1:30 AM81 °FPassing clouds.2 mph94%29.80 "HgN/A
1:00 AM81 °FPassing clouds.2 mph94%29.83 "HgN/A
12:30 AM81 °FPassing clouds.2 mph94%29.83 "HgN/A
12:00 AM81 °FPassing clouds.2 mph94%29.83 "HgN/A
11:30 PM
Mon, May 23
81 °FPassing clouds.2 mph94%29.83 "HgN/A
11:00 PM81 °FPassing clouds.No wind94%29.83 "HgN/A
10:30 PM82 °FPassing clouds.No wind89%29.83 "HgN/A
10:00 PM82 °FPassing clouds.No wind89%29.83 "HgN/A
9:30 PM82 °FPassing clouds.No wind89%29.83 "HgN/A
9:00 PM82 °FPassing clouds.No wind89%29.83 "HgN/A
8:30 PM84 °FPassing clouds.No wind84%29.80 "HgN/A
8:00 PM86 °FPassing clouds.2 mph75%29.80 "HgN/A
Weather by CustomWeather, © 2016

See weather overviewHow to use our weather pages